Weather History for KCAG - July, 2012

Change the Weather History Date:

Wednesday, July 18, 2012

  Actual Average Record
Temperature  
Mean Temperature 68 °F 68 °F  
Max Temperature 91 °F 88 °F 97 °F (1998)
Min Temperature 45 °F 47 °F 39 °F (2014)
Degree Days  
Heating Degree Days 0 0  
Month to date heating degree days 0 20  
Since 1 June heating degree days 66 195  
Since 1 July heating degree days 0 20  
Cooling Degree Days 3 3  
Month to date cooling degree days 98 37  
Year to date cooling degree days 167 47  
Since 1 June cooling degree days 167 47  
Growing Degree Days 18 (Base 50)    
Moisture  
Dew Point 42 °F    
Average Humidity 51    
Maximum Humidity 86    
Minimum Humidity 15    
Precipitation  
Precipitation 0.00 in 0.03 in 0.11 in (2004)
Month to date precipitation 1.02 0.62  
Year to date precipitation 2.60 8.13  
Sea Level Pressure  
Sea Level Pressure 29.99 in    
Wind  
Wind Speed 5 mph (East)    
Max Wind Speed 16 mph    
Max Gust Speed 21 mph    
Visibility 10 miles    
Events      
T = Trace of Precipitation, MM = Missing Value Source: NWS Daily Summary

Daily Weather History Graph

Daily Weather History Graph

Search for Another Location

Airport or City:

Trip Planner

Search our weather history database for the weather conditions in past years. The results will help you decide how hot, cold, wet, or windy it might be!

Date:

Astronomy

Jul. 18, 2012 Rise Set
Actual Time 5:55 AM MDT 8:37 PM MDT
Civil Twilight 5:23 AM MDT 9:08 PM MDT
Nautical Twilight 4:43 AM MDT 9:48 PM MDT
Astronomical Twilight 3:58 AM MDT 10:33 PM MDT
Moon 5:32 AM MDT (7/18) 8:08 PM MDT (7/18)
Length of Visible Light 15h 45m
Length of Day
14h 41m
Waning Crescent, 0% of the Moon is Illuminated
Jul 18
Waning Crescent
Jul 18
New
Jul 26
First Quarter
Aug 1
Full
Aug 9
Last Quarter

Hourly Weather History & Observations

Time (MDT) Temp. Dew Point Humidity Pressure Visibility Wind Dir Wind Speed Gust Speed Precip Events Conditions
12:53 AM 53.1 °F 44.1 °F 71% 29.97 in 10.0 mi Calm Calm - N/A   Clear
1:53 AM 52.0 °F 45.0 °F 77% 29.96 in 10.0 mi Calm Calm - N/A   Clear
2:53 AM 48.9 °F 43.0 °F 80% 29.97 in 10.0 mi Calm Calm - N/A   Clear
3:53 AM 48.9 °F 43.0 °F 80% 30.00 in 10.0 mi Calm Calm - N/A   Clear
4:53 AM 46.9 °F 42.1 °F 83% 30.03 in 10.0 mi Calm Calm - N/A   Partly Cloudy
5:53 AM 46.9 °F 42.1 °F 83% 30.02 in 10.0 mi Calm Calm - N/A   Clear
6:53 AM 51.1 °F 46.0 °F 83% 30.03 in 10.0 mi SW 4.6 mph - N/A   Clear
7:53 AM 59.0 °F 48.0 °F 67% 30.04 in 10.0 mi Calm Calm - N/A   Clear
8:53 AM 71.1 °F 46.0 °F 41% 30.04 in 10.0 mi ENE 11.5 mph - N/A   Clear
9:53 AM 77.0 °F 46.0 °F 33% 30.03 in 10.0 mi NE 6.9 mph - N/A   Clear
10:53 AM 81.0 °F 42.1 °F 25% 30.03 in 10.0 mi Variable 4.6 mph - N/A   Clear
11:53 AM 86.0 °F 36.0 °F 17% 30.00 in 10.0 mi NNW 8.1 mph - N/A   Clear
12:53 PM 87.8 °F 37.4 °F 17% 30.22 in 10.0 mi West 9.2 mph 18.4 mph N/A   Clear
1:53 PM 89.1 °F 36.0 °F 15% 29.96 in 10.0 mi WNW 8.1 mph - N/A   Partly Cloudy
2:53 PM 88.0 °F 36.0 °F 16% 29.96 in 10.0 mi NW 6.9 mph - N/A   Partly Cloudy
3:53 PM 82.9 °F 43.0 °F 24% 29.98 in 10.0 mi SE 12.7 mph - N/A   Mostly Cloudy
4:53 PM 84.0 °F 39.9 °F 21% 29.96 in 10.0 mi ESE 10.4 mph - N/A   Clear
5:53 PM 88.0 °F 37.0 °F 16% 29.94 in 10.0 mi East 3.5 mph - N/A   Clear
6:53 PM 87.1 °F 37.9 °F 18% 29.93 in 10.0 mi NE 3.5 mph - N/A   Clear
7:53 PM 75.9 °F 46.0 °F 35% 29.94 in 10.0 mi SE 3.5 mph - N/A   Clear
8:53 PM 75.9 °F 39.9 °F 27% 29.91 in 10.0 mi ESE 3.5 mph - N/A   Clear
9:53 PM 66.0 °F 46.0 °F 48% 29.96 in 10.0 mi Calm Calm - N/A   Clear
10:53 PM 72.0 °F 44.1 °F 37% 29.94 in 10.0 mi ESE 8.1 mph - N/A   Clear
11:53 PM 70.0 °F 44.1 °F 39% 29.94 in 10.0 mi Calm Calm - N/A   Clear